Wind_Speed
3 3 2 2 2 2 2 2 1 1 1 1 2 1 1 1 1 1 1 1 2 2 2 2 3 3 3 3 4 4 3 4 4 4 4 4 4 4 4 4 3 3 4
3 4 3 3 3 3 2 2 2 2 2 2 2 1 1 1 2 2 2 2 2 3 3 3 3 3 4 4 4 4 4 5 4 5 5 5 5 5 5 5 5 5 5
4 3 4 4 4 3 3 2 2 2 2 2 2 2 2 2 2 2 3 3 3 2 2 3 3 3 3 3 4 4 4 4 4 5 5 5 5 6 6 6 5 5 5
4 3 3 4 4 4 3 3 3 3 3 3 3 2 3 3 3 3 3 3 3 2 3 3 3 3 3 4 4 4 5 4 4 5 5 5 6 6 6 6 6 6 6
4 4 3 3 3 3 3 3 4 4 4 4 4 4 5 5 4 4 5 5 4 4 4 4 4 4 4 4 4 4 5 4 5 5 6 6 6 6 7 6 6 5 5
4 4 4 4 4 4 4 4 4 4 5 5 5 6 6 5 6 6 6 5 5 5 5 5 4 5 5 5 5 5 6 6 6 6 5 6 7 7 7 7 7 6 6
5 5 4 4 5 5 5 5 5 6 6 6 6 6 6 6 6 6 6 5 6 6 6 6 5 5 6 7 7 7 7 8 7 7 7 6 7 7 7 7 7 6 7
5 5 5 5 5 5 5 6 6 7 7 7 7 7 7 7 7 8 8 8 8 8 8 7 7 7 7 8 8 9 9 9 9 9 8 9 9 9 9 8 7 7 7
6 6 6 6 6 6 6 6 7 7 8 8 9 9 9 9 8 8 9 9 9 9 9 8 8 8 9 9 9 10 11 10 10 9 9 9 9 9 9 9 9 8 8
7 7 6 6 7 7 7 6 7 8 8 8 9 9 9 9 8 8 9 9 9 9 9 10 10 9 10 10 10 11 11 10 10 10 10 10 10 9 9 9 9 9 9
7 7 7 7 7 7 7 7 7 8 8 8 9 9 9 8 8 9 9 10 10 10 10 11 11 11 11 11 11 11 10 10 11 11 10 10 10 10 10 9 9 9 9
7 8 7 7 7 7 7 8 8 8 9 9 9 9 9 9 9 9 10 10 10 11 11 11 12 12 12 12 12 11 11 11 11 11 11 11 10 10 9 9 10 10 10
8 8 8 7 7 8 8 8 8 9 9 10 10 10 10 10 10 10 10 11 11 11 11 11 11 12 12 12 12 12 12 12 12 11 10 10 10 10 10 11 10 9 10
8 8 8 8 8 8 9 9 9 10 10 10 10 10 11 11 11 11 10 10 11 11 11 11 12 12 12 12 12 12 12 12 12 11 11 11 11 11 11 11 11 10 10
9 9 9 10 9 9 10 10 10 11 11 11 11 11 11 12 12 11 11 10 11 11 11 12 12 12 13 13 12 12 12 12 12 11 11 11 11 11 11 11 12 12 11
10 10 10 11 11 10 11 11 11 11 12 12 12 12 12 12 12 12 11 11 11 12 12 12 13 13 13 13 13 13 13 13 12 12 12 12 12 12 12 12 12 12 12
11 11 11 11 11 11 12 12 12 12 12 13 13 13 13 13 13 13 13 12 12 12 12 12 12 13 13 14 14 13 13 13 13 13 13 12 12 13 13 13 13 13 13
12 12 13 12 12 12 13 13 13 13 13 13 13 13 14 14 13 13 14 13 13 12 12 13 13 13 13 14 14 14 14 13 13 13 13 13 13 13 14 14 14 14 14
13 13 14 13 14 14 14 14 14 14 14 14 15 15 15 14 14 15 15 14 13 13 13 13 14 14 14 14 14 14 14 14 14 14 14 14 14 14 14 14 14 15 15
14 14 14 14 15 15 15 15 15 15 16 16 16 16 16 16 15 15 14 14 14 14 14 15 15 15 15 15 15 15 15 15 15 16 16 16 15 15 15 15 15 15 15
15 16 16 16 16 16 16 16 16 16 16 16 16 16 16 16 16 15 15 15 15 15 16 16 16 16 16 16 16 17 16 16 17 17 17 17 16 16 16 16 16 16 16
16 17 18 18 18 18 18 18 18 18 18 17 17 18 18 17 17 17 17 16 16 16 16 16 17 17 17 17 17 17 17 17 18 18 18 17 17 17 17 17 17 16 17
18 18 18 19 19 20 20 20 20 20 19 19 19 19 19 19 19 19 18 18 18 18 18 17 18 18 18 18 18 18 18 18 18 18 18 18 18 18 18 19 18 17 17
20 20 20 20 21 21 21 21 21 21 20 20 21 20 20 20 20 20 20 20 20 19 19 18 19 19 20 20 20 20 20 20 19 19 19 19 19 19 19 20 19 19 19
21 21 21 21 22 22 22 22 22 22 22 21 21 22 22 21 22 22 22 22 21 21 21 20 21 21 21 20 21 21 21 21 20 20 19 20 20 20 20 20 20 19 19
22 22 22 23 22 22 22 22 22 23 23 22 23 23 23 23 23 23 23 23 23 23 22 22 22 22 21 22 22 22 22 21 21 22 21 21 21 21 21 21 21 21 21
Wind_Direction
277 270 275 273 284 290 303 310 284 281 305 323 339 347 358 12 5 7 341 291 275 270 256 247 243 239 241 238 236 240 246 246 247 247 249 258 266 267 258 244 249 255 260
278 276 281 285 277 269 274 294 284 260 278 294 325 346 341 358 0 1 348 335 300 282 267 266 269 254 255 247 244 252 255 258 254 251 252 255 261 262 263 262 255 258 262
272 273 276 289 289 267 267 280 296 282 281 283 298 313 310 324 326 325 325 326 322 299 275 275 281 277 269 265 259 260 260 266 261 254 259 258 263 267 269 267 260 256 258
275 283 282 285 289 274 274 282 296 299 299 291 287 290 298 300 297 294 302 313 318 310 302 294 288 282 289 291 277 267 268 269 264 261 258 257 263 269 267 272 267 260 256
276 280 292 296 293 292 282 286 291 296 297 293 292 285 290 292 290 286 289 299 300 296 295 291 288 284 288 287 280 270 272 274 268 264 260 259 264 263 262 264 267 264 265
267 270 284 289 290 296 294 283 284 289 287 287 291 297 294 294 292 288 293 292 301 303 295 290 289 286 284 279 279 276 277 274 277 269 268 266 265 259 258 259 262 266 272
264 266 274 282 289 292 292 286 283 288 290 290 296 298 290 291 294 292 295 300 299 294 293 291 286 283 284 279 274 279 283 279 276 275 269 268 270 277 266 261 261 272 275
261 265 272 277 282 287 286 287 288 289 287 289 297 300 298 299 297 297 291 293 291 291 291 297 294 293 295 288 280 279 281 280 277 276 276 278 279 279 274 269 272 276 275
264 269 272 274 277 280 286 288 289 289 291 293 296 299 296 300 298 292 290 288 290 290 286 288 291 291 294 295 289 284 280 278 279 278 277 277 276 273 269 263 266 270 271
272 275 275 276 278 280 285 289 291 291 293 296 298 299 300 300 294 288 289 288 287 286 283 282 283 286 289 289 289 287 284 282 280 277 275 274 271 267 264 259 261 264 266
277 279 279 279 282 284 287 291 294 294 296 299 301 304 301 300 298 295 293 291 290 284 281 281 283 286 288 288 288 287 286 285 283 279 276 273 269 266 260 257 259 261 264
279 280 280 282 286 289 290 289 291 294 294 296 299 302 300 299 300 300 298 296 293 286 282 281 282 284 287 289 289 289 288 287 286 283 278 273 272 269 263 259 258 261 260
279 280 282 280 284 291 291 289 290 293 294 293 297 300 301 299 301 301 299 296 294 290 286 285 284 285 284 286 285 287 289 286 285 282 279 277 273 268 264 262 264 263 263
280 284 286 287 290 291 288 288 289 291 294 295 296 296 298 298 298 299 298 297 295 294 292 287 286 286 287 286 285 285 287 287 284 279 276 277 274 265 260 259 261 262 265
286 286 285 287 290 292 290 288 289 290 294 295 294 295 295 295 296 296 297 296 294 293 291 286 286 287 287 286 288 287 286 285 281 278 274 274 272 267 262 260 263 264 267
291 290 292 293 293 293 291 290 290 291 291 291 293 295 294 292 291 293 294 295 295 295 293 290 288 287 288 288 288 288 286 285 281 277 276 275 272 269 267 265 266 270 272
290 289 293 292 294 296 292 289 289 291 291 290 291 292 291 292 291 290 291 291 292 294 294 293 292 291 290 290 287 284 284 284 282 278 276 275 271 269 268 268 268 272 274
289 287 287 291 291 293 294 294 292 290 289 289 290 290 291 291 290 290 290 289 289 290 292 294 294 292 291 291 289 285 283 284 282 279 277 273 271 269 269 268 270 273 275
287 287 287 289 290 291 292 293 293 292 291 288 287 288 289 291 290 290 289 287 286 287 288 292 292 293 293 291 288 286 284 282 283 280 278 274 271 268 267 268 271 272 274
287 287 288 288 289 289 291 292 292 292 292 290 289 287 287 286 288 290 290 286 284 284 286 288 289 291 292 290 288 285 284 282 281 279 276 273 270 268 267 269 271 272 273
287 287 287 287 286 287 289 291 291 291 290 289 288 289 288 286 285 284 287 287 285 284 284 286 287 287 288 288 287 284 283 282 281 279 276 274 272 269 269 269 271 271 272
287 287 288 287 286 286 287 289 289 288 288 287 285 286 285 285 285 284 284 285 284 284 284 286 286 285 284 284 286 285 284 283 280 279 276 276 272 269 269 270 270 270 271
288 288 288 287 287 287 287 287 287 286 285 284 282 282 282 282 283 284 286 285 283 283 283 284 284 286 284 283 283 281 280 281 279 278 275 275 274 270 269 270 270 270 271
288 288 287 287 288 288 287 286 285 284 282 282 280 279 280 280 280 283 286 286 284 282 282 282 283 285 284 283 282 280 279 279 278 277 277 276 275 273 271 272 273 272 271
286 287 288 288 288 287 286 285 284 283 281 280 278 279 279 279 279 280 282 283 283 282 281 281 282 283 283 284 282 279 277 277 277 275 277 278 276 274 272 271 272 272 270
284 285 286 287 286 286 284 283 282 282 282 280 279 279 279 278 278 278 279 279 281 281 281 280 280 281 281 282 281 279 276 275 277 275 275 276 276 274 273 271 270 271 271
Height
5871 5871 5871 5871 5871 5871 5871 5871 5870 5870 5870 5870 5870 5870 5870 5870 5869 5869 5869 5869 5868 5868 5868 5868 5868 5868 5868 5869 5869 5869 5869 5869 5869 5870 5870 5871 5871 5871 5871 5871 5872 5872 5872
5871 5871 5871 5871 5871 5871 5871 5871 5870 5870 5870 5870 5870 5870 5870 5870 5869 5869 5869 5869 5868 5868 5868 5868 5868 5868 5868 5868 5868 5868 5869 5869 5869 5869 5869 5870 5870 5870 5870 5871 5871 5871 5872
5871 5870 5871 5870 5870 5870 5870 5870 5870 5870 5870 5870 5870 5870 5870 5869 5869 5869 5869 5868 5868 5867 5868 5868 5868 5868 5868 5868 5867 5867 5868 5868 5868 5868 5868 5869 5869 5870 5870 5870 5870 5870 5871
5871 5870 5870 5870 5870 5870 5870 5870 5870 5870 5870 5870 5870 5869 5869 5869 5869 5869 5869 5868 5868 5867 5867 5867 5867 5867 5867 5867 5867 5867 5867 5867 5867 5867 5868 5868 5868 5868 5869 5869 5869 5869 5869
5870 5870 5870 5870 5870 5870 5870 5870 5870 5869 5870 5869 5869 5869 5869 5868 5868 5868 5868 5868 5868 5867 5867 5867 5867 5867 5867 5866 5866 5866 5866 5866 5866 5866 5867 5867 5867 5867 5868 5868 5868 5868 5868
5870 5870 5870 5870 5870 5870 5869 5869 5869 5869 5869 5869 5868 5868 5868 5868 5868 5867 5867 5867 5867 5867 5866 5866 5866 5866 5866 5866 5865 5865 5865 5865 5865 5865 5866 5866 5866 5866 5866 5867 5867 5867 5867
5869 5869 5869 5869 5869 5869 5869 5869 5869 5868 5868 5868 5868 5867 5866 5867 5867 5867 5866 5866 5866 5866 5866 5865 5865 5865 5865 5865 5865 5864 5864 5864 5864 5864 5864 5865 5865 5865 5865 5865 5865 5866 5866
5868 5868 5868 5868 5869 5868 5868 5868 5868 5868 5868 5867 5867 5867 5866 5866 5866 5866 5866 5865 5865 5865 5865 5864 5864 5864 5864 5863 5863 5863 5863 5863 5863 5863 5863 5863 5863 5863 5863 5864 5864 5864 5865
5867 5867 5868 5867 5868 5868 5867 5867 5867 5867 5867 5867 5866 5866 5866 5865 5865 5865 5864 5864 5864 5863 5863 5863 5863 5863 5862 5862 5862 5861 5861 5861 5861 5861 5862 5862 5862 5862 5862 5862 5862 5863 5863
5866 5866 5867 5867 5867 5866 5866 5866 5866 5866 5866 5865 5865 5865 5864 5864 5864 5864 5863 5863 5862 5862 5862 5862 5861 5861 5861 5860 5860 5860 5860 5860 5860 5859 5860 5860 5860 5860 5860 5860 5860 5861 5861
5865 5865 5865 5865 5865 5865 5865 5865 5865 5864 5864 5864 5864 5863 5863 5863 5862 5862 5862 5861 5861 5860 5860 5860 5859 5859 5859 5859 5858 5858 5858 5858 5858 5858 5857 5858 5858 5858 5858 5858 5858 5859 5859
5863 5863 5864 5864 5864 5864 5864 5863 5863 5863 5863 5862 5862 5862 5861 5861 5861 5860 5860 5859 5859 5858 5858 5857 5857 5857 5857 5856 5856 5856 5856 5856 5856 5856 5856 5855 5856 5856 5856 5856 5856 5857 5857
5862 5862 5862 5862 5862 5862 5862 5862 5862 5862 5861 5861 5860 5860 5860 5859 5859 5859 5858 5858 5857 5856 5856 5855 5855 5855 5854 5854 5854 5854 5854 5854 5853 5853 5853 5853 5853 5854 5854 5854 5855 5855 5855
5861 5861 5861 5861 5861 5861 5861 5860 5860 5860 5860 5859 5858 5858 5858 5858 5857 5857 5856 5856 5855 5854 5854 5853 5853 5852 5852 5852 5851 5851 5851 5851 5851 5851 5851 5851 5851 5851 5851 5852 5852 5853 5853
5860 5860 5859 5859 5859 5859 5859 5858 5858 5858 5858 5857 5857 5856 5856 5855 5855 5855 5854 5853 5853 5852 5851 5851 5850 5850 5850 5849 5849 5848 5848 5848 5848 5848 5848 5848 5849 5849 5849 5849 5850 5850 5850
5858 5858 5857 5857 5857 5857 5857 5856 5856 5855 5855 5855 5854 5854 5853 5853 5852 5852 5851 5851 5850 5850 5849 5849 5848 5848 5847 5847 5846 5846 5846 5846 5846 5846 5846 5846 5846 5846 5846 5847 5847 5847 5848
5856 5856 5855 5855 5855 5855 5854 5854 5854 5853 5853 5852 5852 5851 5851 5850 5850 5849 5849 5848 5848 5847 5847 5846 5845 5845 5844 5844 5843 5843 5843 5843 5843 5843 5843 5843 5843 5843 5844 5844 5844 5845 5845
5854 5854 5853 5853 5853 5852 5852 5851 5851 5850 5850 5849 5849 5848 5848 5847 5847 5846 5846 5845 5845 5844 5844 5843 5843 5842 5841 5841 5840 5840 5840 5840 5840 5840 5840 5840 5840 5840 5840 5841 5841 5842 5842
5851 5851 5851 5851 5850 5850 5849 5848 5848 5848 5847 5846 5846 5845 5844 5844 5844 5843 5843 5842 5842 5841 5841 5840 5840 5839 5838 5838 5837 5837 5837 5837 5837 5837 5836 5837 5837 5837 5837 5837 5838 5838 5839
5849 5848 5848 5848 5847 5847 5846 5845 5845 5844 5844 5843 5842 5842 5841 5840 5840 5840 5839 5839 5838 5838 5838 5837 5837 5836 5835 5835 5834 5834 5834 5834 5834 5833 5833 5833 5833 5833 5834 5834 5834 5835 5835
5846 5845 5845 5844 5844 5843 5843 5842 5842 5841 5840 5839 5839 5838 5837 5837 5836 5836 5836 5835 5835 5834 5834 5834 5833 5832 5832 5831 5831 5830 5830 5830 5830 5830 5829 5829 5829 5830 5830 5830 5831 5831 5831
5842 5842 5841 5840 5840 5839 5839 5838 5837 5837 5836 5835 5835 5834 5833 5833 5832 5832 5832 5831 5831 5831 5830 5830 5829 5828 5828 5827 5827 5827 5826 5826 5826 5826 5826 5825 5825 5825 5826 5826 5827 5827 5827
5838 5838 5837 5836 5835 5835 5834 5833 5833 5832 5831 5831 5830 5830 5829 5829 5828 5828 5827 5827 5826 5826 5826 5825 5825 5824 5824 5823 5823 5823 5822 5822 5821 5821 5821 5821 5821 5821 5821 5822 5822 5823 5823
5833 5833 5832 5831 5830 5829 5829 5828 5827 5827 5826 5826 5825 5825 5824 5824 5823 5823 5822 5822 5822 5821 5821 5820 5820 5819 5819 5819 5818 5817 5817 5817 5817 5817 5817 5816 5816 5816 5816 5817 5817 5818 5818
5828 5827 5827 5826 5825 5824 5823 5823 5822 5821 5821 5820 5820 5819 5819 5818 5818 5818 5817 5817 5816 5816 5816 5815 5815 5814 5813 5813 5813 5812 5812 5812 5811 5812 5812 5812 5811 5811 5811 5812 5812 5812 5812
5822 5822 5821 5820 5819 5818 5817 5817 5816 5815 5815 5815 5814 5814 5813 5813 5812 5812 5812 5811 5811 5810 5810 5810 5809 5809 5808 5807 5807 5806 5806 5806 5806 5806 5806 5806 5806 5806 5806 5806 5807 5807 5807